| time (UTC) | temp C | wind direction | speed KPH | gust KPH | rain 1hr cm | rain 24hr cm | rain mn cm | humidity % | barometer mb |
| 20260904054410 | 12 | 219 | 0.0 | 0.0 | 0.00 | 0.00 | 0.00 | 56 | 1027.6 |
| 20260904053906 | 12 | 163 | 1.6 | 3.2 | 0.00 | 0.00 | 0.00 | 56 | 1027.4 |
| 20260904053404 | 13 | 224 | 1.6 | 1.6 | 0.00 | 0.00 | 0.00 | 55 | 1027.9 |
| 20260904052901 | 13 | 192 | 1.6 | 1.6 | 0.00 | 0.00 | 0.00 | 54 | 1027.5 |
| 20260904052357 | 13 | 196 | 1.6 | 1.6 | 0.00 | 0.00 | 0.00 | 54 | 1027.6 |
| 20260904051853 | 13 | 189 | 0.0 | 0.0 | 0.00 | 0.00 | 0.00 | 54 | 1027.8 |
| 20260904051348 | 13 | 213 | 0.0 | 0.0 | 0.00 | 0.00 | 0.00 | 54 | 1027.8 |
| 20260904050843 | 14 | 221 | 3.2 | 3.2 | 0.00 | 0.00 | 0.00 | 54 | 1027.5 |
| 20260904050340 | 13 | 180 | 3.2 | 3.2 | 0.00 | 0.00 | 0.00 | 53 | 1027.6 |
| 20260904045839 | 13 | 204 | 0.0 | 0.0 | 0.00 | 0.00 | 0.00 | 54 | 1027.5 |
| 20260904045335 | 13 | 201 | 0.0 | 0.0 | 0.00 | 0.00 | 0.00 | 55 | 1027.6 |
| 20260904044834 | 13 | 235 | 0.0 | 0.0 | 0.00 | 0.00 | 0.00 | 54 | 1027.8 |
| 20260904044331 | 13 | 201 | 0.0 | 0.0 | 0.00 | 0.00 | 0.00 | 54 | 1027.8 |
| 20260904043827 | 13 | 215 | 0.0 | 0.0 | 0.00 | 0.00 | 0.00 | 54 | 1027.8 |
| 20260904043323 | 13 | 218 | 0.0 | 0.0 | 0.00 | 0.00 | 0.00 | 53 | 1027.8 |
| 20260904042818 | 13 | 199 | 0.0 | 0.0 | 0.00 | 0.00 | 0.00 | 54 | 1028.0 |
| 20260904042314 | 13 | 213 | 0.0 | 0.0 | 0.00 | 0.00 | 0.00 | 54 | 1027.8 |
| 20260904041814 | 13 | 216 | 0.0 | 0.0 | 0.00 | 0.00 | 0.00 | 53 | 1027.9 |
| 20260904041310 | 13 | 194 | 0.0 | 1.6 | 0.00 | 0.00 | 0.00 | 53 | 1027.8 |
| 20260904040806 | 14 | 210 | 0.0 | 0.0 | 0.00 | 0.00 | 0.00 | 53 | 1028.0 |
| 20260904040301 | 14 | 199 | 0.0 | 0.0 | 0.00 | 0.00 | 0.00 | 53 | 1027.5 |
| 20260904035757 | 14 | 181 | 1.6 | 3.2 | 0.00 | 0.00 | 0.00 | 52 | 1028.0 |
| 20260904035253 | 15 | 201 | 0.0 | 0.0 | 0.00 | 0.00 | 0.00 | 52 | 1027.8 |
| 20260904034751 | 15 | 218 | 0.0 | 0.0 | 0.00 | 0.00 | 0.00 | 51 | 1028.1 |
| 20260904034247 | 15 | 180 | 1.6 | 3.2 | 0.00 | 0.00 | 0.00 | 51 | 1027.9 |
| 20260904033743 | 15 | 207 | 0.0 | 0.0 | 0.00 | 0.00 | 0.00 | 51 | 1027.5 |
| 20260904033240 | 15 | 210 | 0.0 | 0.0 | 0.00 | 0.00 | 0.00 | 50 | 1027.8 |
| 20260904032735 | 15 | 203 | 0.0 | 0.0 | 0.00 | 0.00 | 0.00 | 50 | 1027.9 |
| 20260904032235 | 15 | 210 | 0.0 | 0.0 | 0.00 | 0.00 | 0.00 | 50 | 1027.9 |
| 20260904031729 | 15 | 174 | 1.6 | 1.6 | 0.00 | 0.00 | 0.00 | 49 | 1027.5 |
| 20260904031225 | 15 | 178 | 1.6 | 1.6 | 0.00 | 0.00 | 0.00 | 49 | 1027.6 |
| 20260904030720 | 15 | 179 | 1.6 | 1.6 | 0.00 | 0.00 | 0.00 | 49 | 1027.5 |
| 20260904030215 | 16 | 210 | 0.0 | 0.0 | 0.00 | 0.00 | 0.00 | 49 | 1027.8 |
| 20260904025712 | 16 | 198 | 0.0 | 0.0 | 0.00 | 0.00 | 0.00 | 48 | 1027.9 |
| 20260904025207 | 16 | 184 | 1.6 | 1.6 | 0.00 | 0.00 | 0.00 | 47 | 1027.5 |
| 20260904024702 | 16 | 228 | 1.6 | 1.6 | 0.00 | 0.00 | 0.00 | 47 | 1027.4 |
| 20260904024157 | 16 | 182 | 1.6 | 1.6 | 0.00 | 0.00 | 0.00 | 47 | 1027.6 |
| 20260904023654 | 17 | 198 | 0.0 | 0.0 | 0.00 | 0.00 | 0.00 | 46 | 1027.3 |
| 20260904023149 | 17 | 214 | 0.0 | 0.0 | 0.00 | 0.00 | 0.00 | 47 | 1027.3 |
| 20260904022648 | 17 | 198 | 0.0 | 1.6 | 0.00 | 0.00 | 0.00 | 45 | 1027.1 |
| 20260904022145 | 17 | 198 | 0.0 | 1.6 | 0.00 | 0.00 | 0.00 | 45 | 1027.1 |
| 20260904021548 | 18 | 205 | 0.0 | 0.0 | 0.00 | 0.00 | 0.00 | 44 | 1027.0 |
| 20260904021043 | 18 | 205 | 0.0 | 0.0 | 0.00 | 0.00 | 0.00 | 44 | 1027.0 |
| 20260904020538 | 18 | 213 | 0.0 | 0.0 | 0.00 | 0.00 | 0.00 | 44 | 1026.6 |
| 20260904020033 | 18 | 185 | 0.0 | 0.0 | 0.00 | 0.00 | 0.00 | 45 | 1026.9 |
| 20260904015527 | 18 | 193 | 1.6 | 1.6 | 0.00 | 0.00 | 0.00 | 43 | 1026.9 |
| 20260904015026 | 19 | 223 | 0.0 | 0.0 | 0.00 | 0.00 | 0.00 | 43 | 1026.6 |
| 20260904014520 | 20 | 221 | 0.0 | 0.0 | 0.00 | 0.00 | 0.00 | 41 | 1026.6 |
| 20260904014016 | 20 | 224 | 1.6 | 1.6 | 0.00 | 0.00 | 0.00 | 39 | 1026.5 |
| 20260904013512 | 20 | 222 | 0.0 | 0.0 | 0.00 | 0.00 | 0.00 | 41 | 1027.0 |
| 20260904013009 | 21 | 223 | 0.0 | 0.0 | 0.00 | 0.00 | 0.00 | 37 | 1026.6 |
| 20260904012508 | 21 | 217 | 3.2 | 3.2 | 0.00 | 0.00 | 0.00 | 37 | 1026.6 |
| 20260904012002 | 21 | 224 | 3.2 | 3.2 | 0.00 | 0.00 | 0.00 | 36 | 1026.4 |
| 20260904011456 | 21 | 208 | 1.6 | 3.2 | 0.00 | 0.00 | 0.00 | 36 | 1026.5 |
| 20260904010952 | 22 | 220 | 1.6 | 1.6 | 0.00 | 0.00 | 0.00 | 36 | 1026.4 |
| 20260904010448 | 22 | 223 | 1.6 | 1.6 | 0.00 | 0.00 | 0.00 | 34 | 1026.2 |
| 20260904005943 | 23 | 222 | 0.0 | 1.6 | 0.00 | 0.00 | 0.00 | 34 | 1026.4 |
| 20260904005439 | 23 | 235 | 1.6 | 1.6 | 0.00 | 0.00 | 0.00 | 34 | 1026.6 |
| 20260903233629 | 26 | 336 | 6.4 | 11.3 | 0.00 | 0.00 | 0.00 | 29 | 1025.9 |
| 20260903233124 | 26 | 336 | 6.4 | 11.3 | 0.00 | 0.00 | 0.00 | 29 | 1025.9 |
| 20260903232619 | 26 | 234 | 9.7 | 12.9 | 0.00 | 0.00 | 0.00 | 29 | 1025.9 |
| 20260903232114 | 26 | 10 | 9.7 | 11.3 | 0.00 | 0.00 | 0.00 | 30 | 1026.1 |
| 20260903231608 | 26 | 218 | 3.2 | 3.2 | 0.00 | 0.00 | 0.00 | 29 | 1025.9 |
| 20260903231103 | 26 | 0 | 6.4 | 8.0 | 0.00 | 0.00 | 0.00 | 29 | 1025.9 |
| 20260903230559 | 26 | 50 | 6.4 | 8.0 | 0.00 | 0.00 | 0.00 | 29 | 1025.9 |
| 20260903230057 | 26 | 254 | 4.8 | 4.8 | 0.00 | 0.00 | 0.00 | 28 | 1025.9 |
| 20260903225554 | 26 | 229 | 3.2 | 3.2 | 0.00 | 0.00 | 0.00 | 28 | 1025.9 |
| 20260903225050 | 25 | 203 | 1.6 | 3.2 | 0.00 | 0.00 | 0.00 | 29 | 1025.9 |
| 20260903224546 | 26 | 260 | 3.2 | 3.2 | 0.00 | 0.00 | 0.00 | 29 | 1025.9 |
| 20260903224042 | 26 | 203 | 1.6 | 3.2 | 0.00 | 0.00 | 0.00 | 28 | 1025.9 |
| 20260903223537 | 27 | 221 | 1.6 | 3.2 | 0.00 | 0.00 | 0.00 | 28 | 1026.0 |
| 20260903223036 | 27 | 122 | 3.2 | 4.8 | 0.00 | 0.00 | 0.00 | 28 | 1025.9 |
| 20260903222531 | 27 | 9 | 3.2 | 3.2 | 0.00 | 0.00 | 0.00 | 29 | 1026.0 |
| 20260903222030 | 26 | 301 | 4.8 | 8.0 | 0.00 | 0.00 | 0.00 | 28 | 1025.9 |
| 20260903221525 | 26 | 332 | 9.7 | 12.9 | 0.00 | 0.00 | 0.00 | 28 | 1025.9 |
| 20260903221022 | 27 | 228 | 3.2 | 4.8 | 0.00 | 0.00 | 0.00 | 28 | 1026.0 |
| 20260903220522 | 26 | 244 | 1.6 | 3.2 | 0.00 | 0.00 | 0.00 | 29 | 1026.0 |
| 20260903220022 | 26 | 223 | 4.8 | 4.8 | 0.00 | 0.00 | 0.00 | 29 | 1026.0 |
| 20260903215516 | 26 | 137 | 3.2 | 4.8 | 0.00 | 0.00 | 0.00 | 30 | 1026.1 |
| 20260903215015 | 26 | 293 | 12.9 | 16.1 | 0.00 | 0.00 | 0.00 | 30 | 1026.1 |
| 20260903214510 | 27 | 147 | 6.4 | 8.0 | 0.00 | 0.00 | 0.00 | 29 | 1026.4 |
| 20260903214009 | 26 | 184 | 8.0 | 11.3 | 0.00 | 0.00 | 0.00 | 30 | 1026.0 |
| 20260903213505 | 26 | 354 | 8.0 | 12.9 | 0.00 | 0.00 | 0.00 | 30 | 1026.1 |
| 20260903213001 | 26 | 352 | 8.0 | 11.3 | 0.00 | 0.00 | 0.00 | 31 | 1026.1 |
| 20260903212456 | 25 | 202 | 3.2 | 3.2 | 0.00 | 0.00 | 0.00 | 30 | 1026.0 |
| 20260903211951 | 26 | 35 | 8.0 | 11.3 | 0.00 | 0.00 | 0.00 | 29 | 1026.0 |
| 20260903211446 | 26 | 227 | 4.8 | 8.0 | 0.00 | 0.00 | 0.00 | 30 | 1026.1 |
| 20260903210942 | 27 | 55 | 6.4 | 9.7 | 0.00 | 0.00 | 0.00 | 29 | 1026.0 |
| 20260903210442 | 27 | 216 | 4.8 | 4.8 | 0.00 | 0.00 | 0.00 | 28 | 1026.2 |
| 20260903205937 | 27 | 291 | 9.7 | 16.1 | 0.00 | 0.00 | 0.00 | 26 | 1026.4 |
| 20260903205432 | 27 | 281 | 3.2 | 3.2 | 0.00 | 0.00 | 0.00 | 25 | 1026.0 |
| 20260903204926 | 27 | 28 | 4.8 | 4.8 | 0.00 | 0.00 | 0.00 | 25 | 1026.2 |
| 20260903204423 | 27 | 332 | 4.8 | 4.8 | 0.00 | 0.00 | 0.00 | 25 | 1026.5 |
| 20260903203919 | 28 | 190 | 8.0 | 9.7 | 0.00 | 0.00 | 0.00 | 24 | 1026.2 |
| 20260903203414 | 27 | 250 | 6.4 | 8.0 | 0.00 | 0.00 | 0.00 | 25 | 1026.5 |
| 20260903202913 | 28 | 222 | 0.0 | 0.0 | 0.00 | 0.00 | 0.00 | 24 | 1026.9 |
| 20260903202410 | 27 | 231 | 8.0 | 11.3 | 0.00 | 0.00 | 0.00 | 25 | 1026.5 |
| 20260903201909 | 27 | 224 | 3.2 | 3.2 | 0.00 | 0.00 | 0.00 | 27 | 1026.8 |
| 20260903201404 | 27 | 218 | 1.6 | 1.6 | 0.00 | 0.00 | 0.00 | 25 | 1026.5 |
| 20260903200903 | 28 | 82 | 3.2 | 8.0 | 0.00 | 0.00 | 0.00 | 24 | 1026.8 |
| 20260903200353 | 26 | 214 | 3.2 | 3.2 | 0.00 | 0.00 | 0.00 | 27 | 1027.0 |
| 20260903195848 | 26 | 293 | 4.8 | 4.8 | 0.00 | 0.00 | 0.00 | 26 | 1026.8 |
| 20260903195344 | 26 | 185 | 6.4 | 8.0 | 0.00 | 0.00 | 0.00 | 27 | 1027.0 |
| 20260903194838 | 25 | 333 | 8.0 | 9.7 | 0.00 | 0.00 | 0.00 | 28 | 1027.1 |
| 20260903194334 | 25 | 333 | 8.0 | 9.7 | 0.00 | 0.00 | 0.00 | 28 | 1027.1 |
| 20260903193829 | 25 | 29 | 3.2 | 3.2 | 0.00 | 0.00 | 0.00 | 28 | 1027.4 |
| 20260903193326 | 26 | 321 | 8.0 | 11.3 | 0.00 | 0.00 | 0.00 | 27 | 1027.1 |
| 20260903192821 | 26 | 196 | 4.8 | 4.8 | 0.00 | 0.00 | 0.00 | 28 | 1027.5 |
| 20260903192316 | 26 | 237 | 4.8 | 4.8 | 0.00 | 0.00 | 0.00 | 28 | 1027.1 |
| 20260903191812 | 26 | 225 | 6.4 | 8.0 | 0.00 | 0.00 | 0.00 | 27 | 1027.3 |
| 20260903191308 | 26 | 171 | 3.2 | 8.0 | 0.00 | 0.00 | 0.00 | 28 | 1027.5 |
| 20260903190808 | 26 | 280 | 8.0 | 11.3 | 0.00 | 0.00 | 0.00 | 28 | 1027.3 |
| 20260903190303 | 26 | 223 | 4.8 | 4.8 | 0.00 | 0.00 | 0.00 | 28 | 1027.5 |
| 20260903185757 | 25 | 226 | 3.2 | 3.2 | 0.00 | 0.00 | 0.00 | 31 | 1027.5 |
| 20260903185257 | 25 | 111 | 1.6 | 3.2 | 0.00 | 0.00 | 0.00 | 30 | 1027.6 |
| 20260903184753 | 26 | 29 | 4.8 | 9.7 | 0.00 | 0.00 | 0.00 | 30 | 1027.6 |
| 20260903184249 | 25 | 60 | 4.8 | 4.8 | 0.00 | 0.00 | 0.00 | 29 | 1027.5 |
| 20260903183744 | 25 | 208 | 4.8 | 4.8 | 0.00 | 0.00 | 0.00 | 30 | 1027.8 |
| 20260903183238 | 25 | 251 | 3.2 | 3.2 | 0.00 | 0.00 | 0.00 | 28 | 1027.8 |
| 20260903182737 | 25 | 245 | 4.8 | 4.8 | 0.00 | 0.00 | 0.00 | 31 | 1027.9 |
| 20260903182232 | 25 | 165 | 9.7 | 11.3 | 0.00 | 0.00 | 0.00 | 29 | 1027.8 |
| 20260903181731 | 26 | 216 | 8.0 | 9.7 | 0.00 | 0.00 | 0.00 | 29 | 1027.9 |
| 20260903181226 | 25 | 155 | 1.6 | 1.6 | 0.00 | 0.00 | 0.00 | 29 | 1028.0 |
| 20260903180722 | 25 | 129 | 6.4 | 9.7 | 0.00 | 0.00 | 0.00 | 29 | 1028.5 |
| 20260903180215 | 25 | 114 | 3.2 | 4.8 | 0.00 | 0.00 | 0.00 | 30 | 1028.1 |
| 20260903175715 | 24 | 216 | 1.6 | 3.2 | 0.00 | 0.00 | 0.00 | 30 | 1028.4 |
| 20260903175209 | 24 | 39 | 3.2 | 3.2 | 0.00 | 0.00 | 0.00 | 31 | 1028.5 |
| 20260903174708 | 24 | 208 | 1.6 | 1.6 | 0.00 | 0.00 | 0.00 | 32 | 1028.5 |
| 20260903174203 | 24 | 345 | 3.2 | 4.8 | 0.00 | 0.00 | 0.00 | 32 | 1028.9 |
| 20260903173658 | 23 | 25 | 3.2 | 3.2 | 0.00 | 0.00 | 0.00 | 33 | 1028.6 |
| 20260903173154 | 23 | 215 | 4.8 | 8.0 | 0.00 | 0.00 | 0.00 | 32 | 1028.6 |
| 20260903172649 | 23 | 279 | 6.4 | 8.0 | 0.00 | 0.00 | 0.00 | 32 | 1028.4 |
| 20260903172144 | 23 | 169 | 6.4 | 8.0 | 0.00 | 0.00 | 0.00 | 32 | 1028.9 |
| 20260903171638 | 23 | 146 | 4.8 | 4.8 | 0.00 | 0.00 | 0.00 | 33 | 1028.8 |
| 20260903171134 | 24 | 103 | 1.6 | 3.2 | 0.00 | 0.00 | 0.00 | 32 | 1028.6 |
| 20260903170633 | 23 | 248 | 4.8 | 8.0 | 0.00 | 0.00 | 0.00 | 34 | 1028.8 |
| 20260903170129 | 23 | 101 | 11.3 | 12.9 | 0.00 | 0.00 | 0.00 | 34 | 1028.6 |
| 20260903165627 | 23 | 125 | 3.2 | 3.2 | 0.00 | 0.00 | 0.00 | 33 | 1028.5 |
| 20260903165121 | 22 | 155 | 4.8 | 9.7 | 0.00 | 0.00 | 0.00 | 34 | 1028.6 |
| 20260903164616 | 23 | 277 | 4.8 | 9.7 | 0.00 | 0.00 | 0.00 | 34 | 1028.6 |
| 20260903164107 | 22 | 187 | 3.2 | 3.2 | 0.00 | 0.00 | 0.00 | 34 | 1028.5 |
| 20260903163606 | 23 | 230 | 3.2 | 4.8 | 0.00 | 0.00 | 0.00 | 35 | 1028.3 |
| 20260903163103 | 22 | 253 | 4.8 | 4.8 | 0.00 | 0.00 | 0.00 | 36 | 1028.5 |
| 20260903162559 | 22 | 243 | 6.4 | 9.7 | 0.00 | 0.00 | 0.00 | 36 | 1028.5 |
| 20260903162054 | 22 | 232 | 1.6 | 3.2 | 0.00 | 0.00 | 0.00 | 37 | 1028.5 |
| 20260903161549 | 22 | 201 | 4.8 | 4.8 | 0.00 | 0.00 | 0.00 | 37 | 1028.5 |
| 20260903161045 | 21 | 192 | 4.8 | 8.0 | 0.00 | 0.00 | 0.00 | 37 | 1028.5 |
| 20260903160544 | 22 | 252 | 4.8 | 4.8 | 0.00 | 0.00 | 0.00 | 38 | 1028.4 |
| 20260903160039 | 22 | 203 | 6.4 | 8.0 | 0.00 | 0.00 | 0.00 | 37 | 1028.6 |
| 20260903155538 | 21 | 196 | 1.6 | 3.2 | 0.00 | 0.00 | 0.00 | 38 | 1028.8 |
| 20260903155034 | 21 | 237 | 6.4 | 9.7 | 0.00 | 0.00 | 0.00 | 37 | 1028.4 |
| 20260903154530 | 21 | 211 | 3.2 | 4.8 | 0.00 | 0.00 | 0.00 | 39 | 1028.4 |
| 20260903154026 | 21 | 123 | 3.2 | 8.0 | 0.00 | 0.00 | 0.00 | 39 | 1028.3 |
| 20260903153520 | 21 | 226 | 4.8 | 4.8 | 0.00 | 0.00 | 0.00 | 39 | 1028.6 |
| 20260903153017 | 21 | 262 | 3.2 | 4.8 | 0.00 | 0.00 | 0.00 | 39 | 1028.4 |
| 20260903152512 | 21 | 232 | 4.8 | 8.0 | 0.00 | 0.00 | 0.00 | 39 | 1028.6 |
| 20260903152008 | 21 | 185 | 0.0 | 1.6 | 0.00 | 0.00 | 0.00 | 38 | 1029.0 |
| 20260903151507 | 20 | 208 | 8.0 | 12.9 | 0.00 | 0.00 | 0.00 | 39 | 1028.6 |
| 20260903151003 | 20 | 250 | 3.2 | 4.8 | 0.00 | 0.00 | 0.00 | 39 | 1028.5 |
| 20260903150457 | 20 | 317 | 3.2 | 4.8 | 0.00 | 0.00 | 0.00 | 41 | 1028.6 |
| 20260903145951 | 20 | 164 | 4.8 | 4.8 | 0.00 | 0.00 | 0.00 | 40 | 1028.8 |
| 20260903145447 | 20 | 197 | 1.6 | 1.6 | 0.00 | 0.00 | 0.00 | 41 | 1028.8 |
| 20260903144942 | 19 | 203 | 3.2 | 3.2 | 0.00 | 0.00 | 0.00 | 46 | 1029.3 |
| 20260903144441 | 19 | 213 | 6.4 | 8.0 | 0.00 | 0.00 | 0.00 | 43 | 1029.0 |
| 20260903143937 | 19 | 227 | 1.6 | 3.2 | 0.00 | 0.00 | 0.00 | 42 | 1029.0 |
| 20260903143433 | 18 | 82 | 1.6 | 3.2 | 0.00 | 0.00 | 0.00 | 43 | 1028.9 |
| 20260903142929 | 18 | 160 | 4.8 | 4.8 | 0.00 | 0.00 | 0.00 | 43 | 1029.0 |
| 20260903142424 | 18 | 149 | 6.4 | 9.7 | 0.00 | 0.00 | 0.00 | 44 | 1028.9 |
| 20260903141920 | 17 | 221 | 0.0 | 0.0 | 0.00 | 0.00 | 0.00 | 46 | 1028.8 |
| 20260903141415 | 17 | 210 | 3.2 | 3.2 | 0.00 | 0.00 | 0.00 | 46 | 1029.0 |
| 20260903140911 | 15 | 221 | 3.2 | 3.2 | 0.00 | 0.00 | 0.00 | 54 | 1029.0 |
| 20260903140401 | 14 | 248 | 1.6 | 3.2 | 0.00 | 0.00 | 0.00 | 56 | 1029.0 |
| 20260903135856 | 14 | 290 | 1.6 | 3.2 | 0.00 | 0.00 | 0.00 | 59 | 1028.8 |
| 20260903135352 | 14 | 219 | 1.6 | 1.6 | 0.00 | 0.00 | 0.00 | 57 | 1029.0 |
| 20260903134850 | 13 | 171 | 1.6 | 3.2 | 0.00 | 0.00 | 0.00 | 61 | 1028.8 |
| 20260903134346 | 12 | 187 | 1.6 | 1.6 | 0.00 | 0.00 | 0.00 | 61 | 1029.0 |
| 20260903133843 | 12 | 181 | 1.6 | 1.6 | 0.00 | 0.00 | 0.00 | 63 | 1028.8 |
| 20260903133339 | 11 | 215 | 0.0 | 0.0 | 0.00 | 0.00 | 0.00 | 66 | 1028.6 |
| 20260903132834 | 10 | 211 | 0.0 | 0.0 | 0.00 | 0.00 | 0.00 | 66 | 1029.0 |
| 20260903132330 | 10 | 196 | 1.6 | 1.6 | 0.00 | 0.00 | 0.00 | 67 | 1028.6 |
| 20260903131824 | 10 | 222 | 0.0 | 0.0 | 0.00 | 0.00 | 0.00 | 68 | 1028.6 |
| 20260903131324 | 10 | 220 | 0.0 | 0.0 | 0.00 | 0.00 | 0.00 | 69 | 1028.6 |
| 20260903130823 | 8 | 180 | 1.6 | 3.2 | 0.00 | 0.00 | 0.00 | 69 | 1028.6 |
| 20260903130318 | 8 | 204 | 0.0 | 0.0 | 0.00 | 0.00 | 0.00 | 70 | 1028.6 |
| 20260903125817 | 8 | 173 | 1.6 | 1.6 | 0.00 | 0.00 | 0.00 | 70 | 1028.5 |
| 20260903125312 | 8 | 208 | 0.0 | 0.0 | 0.00 | 0.00 | 0.00 | 70 | 1028.6 |
| 20260903124811 | 8 | 208 | 0.0 | 0.0 | 0.00 | 0.00 | 0.00 | 71 | 1028.4 |
| 20260903124307 | 8 | 234 | 0.0 | 0.0 | 0.00 | 0.00 | 0.00 | 69 | 1028.3 |
| 20260903123805 | 9 | 213 | 0.0 | 1.6 | 0.00 | 0.00 | 0.00 | 70 | 1028.4 |
| 20260903123305 | 10 | 225 | 0.0 | 0.0 | 0.00 | 0.00 | 0.00 | 68 | 1028.4 |
| 20260903122804 | 10 | 155 | 4.8 | 4.8 | 0.00 | 0.00 | 0.00 | 65 | 1028.1 |
| 20260903122259 | 9 | 236 | 0.0 | 0.0 | 0.00 | 0.00 | 0.00 | 66 | 1027.9 |
| 20260903121756 | 10 | 34 | 1.6 | 1.6 | 0.00 | 0.00 | 0.00 | 67 | 1028.1 |
| 20260903121253 | 10 | 170 | 1.6 | 3.2 | 0.00 | 0.00 | 0.00 | 67 | 1027.9 |
| 20260903120749 | 10 | 204 | 0.0 | 1.6 | 0.00 | 0.00 | 0.00 | 64 | 1028.0 |
| 20260903120242 | 11 | 221 | 0.0 | 0.0 | 0.00 | 0.00 | 0.00 | 63 | 1027.8 |
| 20260903115741 | 11 | 216 | 0.0 | 0.0 | 0.00 | 0.00 | 0.00 | 61 | 1028.1 |
| 20260903115236 | 11 | 205 | 3.2 | 3.2 | 0.00 | 0.00 | 0.00 | 60 | 1028.0 |
| 20260903114736 | 12 | 164 | 3.2 | 3.2 | 0.00 | 0.00 | 0.00 | 58 | 1028.0 |
| 20260903114232 | 12 | 171 | 4.8 | 4.8 | 0.00 | 0.00 | 0.00 | 58 | 1027.9 |
| 20260903113727 | 10 | 212 | 0.0 | 0.0 | 0.00 | 0.00 | 0.00 | 67 | 1027.8 |
| 20260903113223 | 8 | 221 | 0.0 | 0.0 | 0.00 | 0.00 | 0.00 | 68 | 1027.9 |
| 20260903112719 | 8 | 213 | 0.0 | 0.0 | 0.00 | 0.00 | 0.00 | 69 | 1027.9 |
| 20260903112214 | 8 | 230 | 0.0 | 0.0 | 0.00 | 0.00 | 0.00 | 69 | 1028.0 |
| 20260903111712 | 8 | 217 | 0.0 | 1.6 | 0.00 | 0.00 | 0.00 | 68 | 1027.9 |
| 20260903111208 | 8 | 220 | 0.0 | 0.0 | 0.00 | 0.00 | 0.00 | 70 | 1027.8 |
| 20260903110658 | 8 | 158 | 4.8 | 4.8 | 0.00 | 0.00 | 0.00 | 72 | 1028.0 |
| 20260903110154 | 9 | 224 | 0.0 | 0.0 | 0.00 | 0.00 | 0.00 | 69 | 1027.9 |
| 20260903105653 | 9 | 177 | 3.2 | 3.2 | 0.00 | 0.00 | 0.00 | 68 | 1027.9 |
| 20260903105149 | 8 | 199 | 0.0 | 0.0 | 0.00 | 0.00 | 0.00 | 72 | 1028.0 |
| 20260903104648 | 8 | 208 | 0.0 | 1.6 | 0.00 | 0.00 | 0.00 | 73 | 1028.1 |
| 20260903104144 | 9 | 169 | 3.2 | 3.2 | 0.00 | 0.00 | 0.00 | 68 | 1027.9 |
| 20260903103639 | 9 | 216 | 1.6 | 3.2 | 0.00 | 0.00 | 0.00 | 68 | 1027.9 |
| 20260903103136 | 9 | 215 | 1.6 | 1.6 | 0.00 | 0.00 | 0.00 | 69 | 1027.8 |
| 20260903102631 | 9 | 227 | 0.0 | 0.0 | 0.00 | 0.00 | 0.00 | 70 | 1027.9 |
| 20260903102129 | 10 | 217 | 0.0 | 0.0 | 0.00 | 0.00 | 0.00 | 68 | 1028.0 |
| 20260903101624 | 12 | 209 | 0.0 | 0.0 | 0.00 | 0.00 | 0.00 | 59 | 1027.8 |
| 20260903101119 | 11 | 132 | 6.4 | 9.7 | 0.00 | 0.00 | 0.00 | 59 | 1028.0 |
| 20260903100614 | 11 | 155 | 4.8 | 4.8 | 0.00 | 0.00 | 0.00 | 62 | 1028.0 |
| 20260903100113 | 10 | 221 | 0.0 | 0.0 | 0.00 | 0.00 | 0.00 | 64 | 1027.8 |
| 20260903095611 | 10 | 173 | 3.2 | 3.2 | 0.00 | 0.00 | 0.00 | 63 | 1027.6 |
| 20260903095111 | 10 | 186 | 0.0 | 1.6 | 0.00 | 0.00 | 0.00 | 68 | 1028.1 |
| 20260903094606 | 12 | 262 | 1.6 | 1.6 | 0.00 | 0.00 | 0.00 | 60 | 1028.0 |
| 20260903094101 | 12 | 206 | 1.6 | 1.6 | 0.00 | 0.00 | 0.00 | 58 | 1027.9 |
| 20260903093556 | 11 | 154 | 4.8 | 4.8 | 0.00 | 0.00 | 0.00 | 59 | 1027.8 |
| 20260903093052 | 11 | 184 | 1.6 | 1.6 | 0.00 | 0.00 | 0.00 | 60 | 1027.9 |
| 20260903092551 | 11 | 184 | 0.0 | 1.6 | 0.00 | 0.00 | 0.00 | 62 | 1027.8 |
| 20260903092045 | 10 | 183 | 1.6 | 1.6 | 0.00 | 0.00 | 0.00 | 66 | 1027.6 |
| 20260903091544 | 8 | 219 | 0.0 | 0.0 | 0.00 | 0.00 | 0.00 | 73 | 1027.8 |
| 20260903091038 | 8 | 193 | 1.6 | 1.6 | 0.00 | 0.00 | 0.00 | 74 | 1027.9 |
| 20260903090535 | 8 | 214 | 0.0 | 0.0 | 0.00 | 0.00 | 0.00 | 74 | 1028.1 |
| 20260903090033 | 8 | 202 | 0.0 | 1.6 | 0.00 | 0.00 | 0.00 | 75 | 1027.9 |
| 20260903085531 | 8 | 214 | 0.0 | 0.0 | 0.00 | 0.00 | 0.00 | 75 | 1028.1 |
| 20260903085027 | 8 | 225 | 0.0 | 0.0 | 0.00 | 0.00 | 0.00 | 75 | 1028.1 |
| 20260903084525 | 8 | 222 | 0.0 | 0.0 | 0.00 | 0.00 | 0.00 | 74 | 1027.9 |
| 20260903084020 | 8 | 201 | 0.0 | 0.0 | 0.00 | 0.00 | 0.00 | 75 | 1028.4 |
| 20260903083516 | 8 | 217 | 0.0 | 0.0 | 0.00 | 0.00 | 0.00 | 75 | 1028.1 |
| 20260903083010 | 8 | 197 | 0.0 | 0.0 | 0.00 | 0.00 | 0.00 | 76 | 1028.1 |
| 20260903082504 | 8 | 217 | 0.0 | 0.0 | 0.00 | 0.00 | 0.00 | 77 | 1028.0 |
| 20260903082000 | 8 | 217 | 0.0 | 0.0 | 0.00 | 0.00 | 0.00 | 77 | 1028.0 |
| 20260903081455 | 9 | 230 | 0.0 | 0.0 | 0.00 | 0.00 | 0.00 | 77 | 1028.3 |
| 20260903080951 | 9 | 219 | 1.6 | 1.6 | 0.00 | 0.00 | 0.00 | 77 | 1028.1 |
| 20260903080447 | 9 | 214 | 0.0 | 0.0 | 0.00 | 0.00 | 0.00 | 77 | 1028.0 |
| 20260903075943 | 9 | 179 | 1.6 | 3.2 | 0.00 | 0.00 | 0.00 | 77 | 1028.1 |
| 20260903075438 | 8 | 187 | 1.6 | 1.6 | 0.00 | 0.00 | 0.00 | 79 | 1028.1 |
| 20260903074933 | 9 | 209 | 0.0 | 0.0 | 0.00 | 0.00 | 0.00 | 79 | 1028.3 |
| 20260903074432 | 9 | 212 | 0.0 | 0.0 | 0.00 | 0.00 | 0.00 | 79 | 1028.0 |
| 20260903073928 | 10 | 219 | 0.0 | 0.0 | 0.00 | 0.00 | 0.00 | 78 | 1028.4 |
| 20260903073423 | 9 | 175 | 3.2 | 3.2 | 0.00 | 0.00 | 0.00 | 78 | 1028.6 |
| 20260903072918 | 10 | 196 | 1.6 | 1.6 | 0.00 | 0.00 | 0.00 | 77 | 1028.5 |
| 20260903072414 | 10 | 222 | 0.0 | 0.0 | 0.00 | 0.00 | 0.00 | 77 | 1028.4 |
| 20260903071911 | 10 | 184 | 0.0 | 0.0 | 0.00 | 0.00 | 0.00 | 75 | 1028.6 |
| 20260903071407 | 10 | 219 | 0.0 | 0.0 | 0.00 | 0.00 | 0.00 | 77 | 1028.4 |
| 20260903070903 | 10 | 193 | 0.0 | 0.0 | 0.00 | 0.00 | 0.00 | 77 | 1028.5 |
| 20260903070357 | 10 | 219 | 0.0 | 0.0 | 0.00 | 0.00 | 0.00 | 77 | 1028.6 |
| 20260903065851 | 11 | 154 | 3.2 | 3.2 | 0.00 | 0.00 | 0.00 | 78 | 1028.5 |
| 20260903065351 | 11 | 154 | 3.2 | 3.2 | 0.00 | 0.00 | 0.00 | 78 | 1028.5 |
| 20260903064850 | 11 | 203 | 0.0 | 1.6 | 0.00 | 0.00 | 0.00 | 74 | 1028.6 |
| 20260903064346 | 11 | 213 | 1.6 | 1.6 | 0.00 | 0.00 | 0.00 | 74 | 1028.6 |
| 20260903063842 | 11 | 193 | 0.0 | 0.0 | 0.00 | 0.00 | 0.00 | 76 | 1028.5 |
| 20260903063337 | 11 | 212 | 0.0 | 0.0 | 0.00 | 0.00 | 0.00 | 76 | 1028.6 |
| 20260903062833 | 11 | 221 | 0.0 | 0.0 | 0.00 | 0.00 | 0.00 | 75 | 1028.5 |
| 20260903062332 | 12 | 230 | 0.0 | 0.0 | 0.00 | 0.00 | 0.00 | 74 | 1028.8 |
| 20260903061828 | 12 | 167 | 3.2 | 3.2 | 0.00 | 0.00 | 0.00 | 74 | 1028.5 |
| 20260903061321 | 12 | 219 | 0.0 | 0.0 | 0.00 | 0.00 | 0.00 | 74 | 1028.4 |
| 20260903060818 | 12 | 197 | 1.6 | 1.6 | 0.00 | 0.00 | 0.00 | 71 | 1028.4 |
| 20260903060317 | 12 | 204 | 1.6 | 1.6 | 0.00 | 0.00 | 0.00 | 72 | 1028.4 |
| 20260903055815 | 12 | 166 | 3.2 | 3.2 | 0.00 | 0.00 | 0.00 | 73 | 1028.8 |
| 20260903055313 | 12 | 213 | 0.0 | 0.0 | 0.00 | 0.00 | 0.00 | 72 | 1028.5 |
| 20260903054808 | 13 | 222 | 0.0 | 0.0 | 0.00 | 0.00 | 0.00 | 71 | 1028.5 |